Location: Newark
(44.6028°N, 124.0883°W)
Time: 06:25:47
(UTC+00:00)

N. Korean satellite - Pass Details

Date: 31 October 2020
Orbit: 453 x 504 km, 97.2° (Epoch: 30 November)

Event Time Altitude Azimuth Distance (km) Brightness Sun altitude
Rises 13:03:54 0° 26° (NNE) 2,476 10.5 -20.0°
Reaches altitude 10° 13:06:19 10° 44° (NE) 1,596 9.7 -19.5°
Maximum altitude 13:08:57 21° 94° (E) 1,091 9.3 -19.1°
Drops below altitude 10° 13:11:34 10° 145° (SE) 1,590 9.7 -18.6°
Sets 13:13:58 0° 162° (SSE) 2,463 10.4 -18.2°
